SCP
0 0 0 0 0 0 2 8 5 4 5 3 3 2 1 1 1 1 1 0 0 0 0 0 0 0 0 0 0 0 0 0
-0 -0 0 0 0 0 0 6 5 6 5 4 4 3 1 1 1 1 1 0 0 0 0 0 0 0 0 0 0 0 0 0
-0 -0 0 0 0 0 0 2 5 5 5 4 4 4 2 1 1 1 1 0 0 0 0 0 0 0 0 0 0 0 0 0
0 0 0 0 0 0 1 2 3 4 4 3 1 1 0 0 0 1 0 0 0 0 0 0 0 0 0 0 0 0 0 0
0 0 0 0 0 0 1 2 3 4 3 2 1 2 1 1 2 1 0 0 0 0 0 0 0 0 0 0 0 0 0 0
0 0 0 0 0 0 0 2 2 3 2 2 1 1 1 0 1 0 0 0 0 0 0 0 0 0 0 0 0 0 0 0
0 0 0 0 0 0 1 2 2 3 2 1 1 1 0 0 0 0 0 0 0 0 0 0 0 0 0 0 0 0 0 0
0 0 0 0 0 0 0 1 1 1 1 1 1 0 0 0 0 0 0 0 0 0 0 0 0 0 0 0 0 0 0 0
0 0 0 0 0 0 0 1 1 1 1 0 0 0 0 0 0 0 0 0 0 0 0 0 0 0 0 0 0 0 0 0
0 0 0 0 0 0 0 0 1 1 1 0 0 0 0 0 0 0 0 0 0 0 0 0 0 0 0 0 0 0 0 0
0 0 0 0 0 0 0 0 1 0 0 0 0 0 0 0 0 0 0 0 0 0 0 0 0 0 0 0 0 0 0 0
-0 -0 0 0 0 0 0 0 0 0 0 0 0 0 0 0 0 0 0 0 0 0 0 0 0 0 0 0 0 0 0 0
0 -0 0 0 0 0 0 0 0 0 0 0 0 0 0 0 0 0 0 0 0 0 0 0 0 0 0 0 0 0 0 0
0 0 0 0 0 0 0 0 0 0 0 0 0 0 0 0 0 0 0 0 0 0 0 0 0 0 0 0 0 0 0 0
-0 0 0 0 0 0 0 0 0 0 0 0 0 0 0 0 0 0 0 0 0 0 0 0 0 0 0 0 0 0 0 0
-0 -0 0 0 0 0 0 0 0 0 0 0 0 0 0 0 0 0 0 0 0 0 0 0 0 0 0 0 0 0 0 0
-0 -0 -0 -0 0 0 0 0 0 0 -0 -0 0 0 0 0 0 0 0 0 0 0 0 0 0 0 0 0 0 0 0 0
-0 -0 0 0 0 0 0 0 0 0 0 0 0 0 0 0 0 0 0 0 0 0 0 0 0 0 0 0 0 0 0 0
0 0 -0 0 0 0 0 0 0 0 0 0 0 0 0 0 0 0 0 0 0 0 0 0 0 0 0 0 0 0 0 0
Wind_Speed_500mb
75 73 70 68 66 56 60 76 85 82 76 74 65 61 69 67 63 57 50 50 46 44 43 40 46 51 54 53 53 56 62 56
64 73 78 76 69 64 57 64 84 90 87 83 76 73 76 70 67 61 55 53 50 47 47 44 46 55 56 54 55 54 58 62
68 66 65 74 75 66 61 57 71 91 92 89 85 79 82 75 72 66 63 57 53 50 49 49 50 51 55 56 57 59 62 69
72 67 46 43 59 63 62 56 66 80 94 99 90 84 69 66 68 71 65 60 57 52 45 49 55 56 56 53 57 59 69 75
68 67 54 34 33 45 47 55 57 85 100 96 95 95 79 87 93 77 68 64 60 54 47 49 55 57 56 52 52 58 69 70
64 62 61 37 25 28 37 54 58 87 87 93 98 98 84 82 79 78 73 67 61 57 52 52 56 56 53 53 52 62 68 72
54 54 55 39 25 25 34 50 65 79 100 101 102 100 84 76 78 73 72 65 60 59 55 53 60 56 57 53 56 59 63 72
54 55 57 51 36 16 32 51 61 81 96 99 97 95 82 66 68 70 68 61 61 56 54 51 53 50 53 54 52 55 59 66
58 54 55 52 41 19 27 48 55 71 82 80 84 76 69 63 62 63 59 51 43 40 44 47 45 52 50 53 55 60 59 65
56 53 52 52 36 20 17 44 47 56 59 65 71 68 61 59 57 53 46 36 32 31 33 35 44 46 47 48 49 57 62 67
59 57 57 52 36 20 5 33 44 57 43 42 60 53 52 49 50 48 40 34 32 29 33 40 46 49 48 47 51 57 70 74
59 58 55 52 40 21 16 6 25 48 38 50 52 46 50 48 47 40 36 32 27 27 32 34 41 40 42 49 52 57 62 75
49 52 51 52 50 38 25 29 25 22 34 41 42 49 42 44 40 35 34 27 24 27 28 31 31 32 32 34 38 35 57 66
55 55 54 53 52 48 39 15 18 15 15 27 35 45 48 48 42 39 37 31 26 22 23 23 25 28 30 33 27 28 51 49
54 57 55 51 49 49 45 26 4 12 24 33 41 59 58 52 47 44 38 35 31 25 24 25 29 31 33 31 29 19 25 47
48 56 56 53 49 45 44 38 15 6 18 32 37 66 62 56 47 40 37 33 29 26 25 25 26 27 30 29 27 27 29 43
46 48 52 54 50 46 42 39 34 15 18 37 41 43 56 56 49 45 40 35 33 30 27 28 31 32 28 32 31 30 29 38
41 46 48 48 46 41 42 40 35 27 25 16 30 39 46 54 53 48 43 36 34 31 29 28 30 31 24 26 29 36 39 42
40 41 43 43 43 41 35 35 36 34 33 35 28 13 31 45 45 49 45 39 34 30 28 28 28 29 27 25 25 27 33 40
Wind_Direction_500mb
304 299 291 289 288 276 249 242 242 233 231 228 226 230 231 223 221 222 218 219 219 220 219 218 218 218 217 214 212 210 213 217
305 301 294 290 284 279 270 251 241 229 224 226 221 224 229 227 222 222 219 221 222 223 220 220 218 221 222 218 215 217 216 215
317 311 296 283 284 276 266 261 239 233 233 227 222 224 225 230 223 221 217 220 223 225 223 223 222 224 224 221 221 218 219 212
338 322 312 281 275 271 262 260 242 232 226 222 218 218 220 232 228 221 213 219 223 224 220 222 227 229 228 224 220 221 214 214
341 335 318 300 272 266 256 251 245 228 224 222 218 215 214 226 225 221 220 222 222 221 225 227 230 232 230 228 222 223 221 221
339 338 328 313 293 248 245 243 242 228 226 224 218 214 219 228 223 222 217 218 222 223 223 228 231 234 230 230 228 228 224 225
344 340 332 327 308 248 224 232 234 230 222 221 217 214 218 226 223 215 209 214 219 220 224 228 229 230 230 228 232 235 226 230
345 350 343 337 331 254 214 227 228 225 220 220 218 216 219 224 219 210 206 210 216 222 225 225 224 226 232 232 234 228 229 229
352 355 349 348 349 310 209 217 221 220 221 226 222 215 217 223 214 209 208 215 219 222 221 223 226 231 235 234 237 233 233 237
354 356 359 356 358 352 206 209 232 227 222 224 219 216 219 214 205 207 211 206 202 200 213 224 231 236 238 243 240 242 243 237
358 4 5 7 3 358 216 196 216 215 212 226 227 227 222 203 204 203 198 191 188 206 223 235 239 238 241 243 244 246 246 241
1 359 6 15 15 19 44 148 189 236 219 220 233 230 212 199 194 192 191 190 193 217 227 237 235 240 247 250 248 249 258 223
7 4 7 17 24 31 43 72 148 196 226 236 221 226 200 187 190 189 183 194 207 215 220 236 234 243 244 236 242 253 246 225
13 14 11 14 21 29 34 63 123 170 209 221 233 215 189 196 195 187 189 195 209 201 210 226 240 244 238 245 256 246 228 215
9 16 16 15 20 26 27 43 99 243 219 215 219 223 188 187 190 189 197 191 193 202 217 233 240 240 242 241 245 231 229 234
14 13 16 16 20 28 33 34 37 180 197 206 227 171 181 178 185 194 198 199 203 212 216 235 240 242 241 235 230 215 233 229
20 20 22 21 20 25 31 35 36 35 126 165 181 176 168 177 182 189 197 199 198 208 220 228 244 245 243 239 235 224 218 214
21 25 28 26 22 23 34 35 38 38 35 89 135 169 158 165 177 185 191 198 202 207 215 227 238 247 234 225 226 216 210 216
26 27 30 32 33 32 35 45 50 50 51 38 46 72 132 163 168 169 173 182 194 203 212 222 231 232 219 219 214 216 212 206
Wind_Speed_850mb
75 73 70 68 66 56 60 76 85 82 76 74 65 61 69 67 63 57 50 50 46 44 43 40 46 51 54 53 53 56 62 56
64 73 78 76 69 64 57 64 84 90 87 83 76 73 76 70 67 61 55 53 50 47 47 44 46 55 56 54 55 54 58 62
68 66 65 74 75 66 61 57 71 91 92 89 85 79 82 75 72 66 63 57 53 50 49 49 50 51 55 56 57 59 62 69
72 67 46 43 59 63 62 56 66 80 94 99 90 84 69 66 68 71 65 60 57 52 45 49 55 56 56 53 57 59 69 75
68 67 54 34 33 45 47 55 57 85 100 96 95 95 79 87 93 77 68 64 60 54 47 49 55 57 56 52 52 58 69 70
64 62 61 37 25 28 37 54 58 87 87 93 98 98 84 82 79 78 73 67 61 57 52 52 56 56 53 53 52 62 68 72
54 54 55 39 25 25 34 50 65 79 100 101 102 100 84 76 78 73 72 65 60 59 55 53 60 56 57 53 56 59 63 72
54 55 57 51 36 16 32 51 61 81 96 99 97 95 82 66 68 70 68 61 61 56 54 51 53 50 53 54 52 55 59 66
58 54 55 52 41 19 27 48 55 71 82 80 84 76 69 63 62 63 59 51 43 40 44 47 45 52 50 53 55 60 59 65
56 53 52 52 36 20 17 44 47 56 59 65 71 68 61 59 57 53 46 36 32 31 33 35 44 46 47 48 49 57 62 67
59 57 57 52 36 20 5 33 44 57 43 42 60 53 52 49 50 48 40 34 32 29 33 40 46 49 48 47 51 57 70 74
59 58 55 52 40 21 16 6 25 48 38 50 52 46 50 48 47 40 36 32 27 27 32 34 41 40 42 49 52 57 62 75
49 52 51 52 50 38 25 29 25 22 34 41 42 49 42 44 40 35 34 27 24 27 28 31 31 32 32 34 38 35 57 66
55 55 54 53 52 48 39 15 18 15 15 27 35 45 48 48 42 39 37 31 26 22 23 23 25 28 30 33 27 28 51 49
54 57 55 51 49 49 45 26 4 12 24 33 41 59 58 52 47 44 38 35 31 25 24 25 29 31 33 31 29 19 25 47
48 56 56 53 49 45 44 38 15 6 18 32 37 66 62 56 47 40 37 33 29 26 25 25 26 27 30 29 27 27 29 43
46 48 52 54 50 46 42 39 34 15 18 37 41 43 56 56 49 45 40 35 33 30 27 28 31 32 28 32 31 30 29 38
41 46 48 48 46 41 42 40 35 27 25 16 30 39 46 54 53 48 43 36 34 31 29 28 30 31 24 26 29 36 39 42
40 41 43 43 43 41 35 35 36 34 33 35 28 13 31 45 45 49 45 39 34 30 28 28 28 29 27 25 25 27 33 40
Wind_Direction_850mb
304 299 291 289 288 276 249 242 242 233 231 228 226 230 231 223 221 222 218 219 219 220 219 218 218 218 217 214 212 210 213 217
305 301 294 290 284 279 270 251 241 229 224 226 221 224 229 227 222 222 219 221 222 223 220 220 218 221 222 218 215 217 216 215
317 311 296 283 284 276 266 261 239 233 233 227 222 224 225 230 223 221 217 220 223 225 223 223 222 224 224 221 221 218 219 212
338 322 312 281 275 271 262 260 242 232 226 222 218 218 220 232 228 221 213 219 223 224 220 222 227 229 228 224 220 221 214 214
341 335 318 300 272 266 256 251 245 228 224 222 218 215 214 226 225 221 220 222 222 221 225 227 230 232 230 228 222 223 221 221
339 338 328 313 293 248 245 243 242 228 226 224 218 214 219 228 223 222 217 218 222 223 223 228 231 234 230 230 228 228 224 225
344 340 332 327 308 248 224 232 234 230 222 221 217 214 218 226 223 215 209 214 219 220 224 228 229 230 230 228 232 235 226 230
345 350 343 337 331 254 214 227 228 225 220 220 218 216 219 224 219 210 206 210 216 222 225 225 224 226 232 232 234 228 229 229
352 355 349 348 349 310 209 217 221 220 221 226 222 215 217 223 214 209 208 215 219 222 221 223 226 231 235 234 237 233 233 237
354 356 359 356 358 352 206 209 232 227 222 224 219 216 219 214 205 207 211 206 202 200 213 224 231 236 238 243 240 242 243 237
358 4 5 7 3 358 216 196 216 215 212 226 227 227 222 203 204 203 198 191 188 206 223 235 239 238 241 243 244 246 246 241
1 359 6 15 15 19 44 148 189 236 219 220 233 230 212 199 194 192 191 190 193 217 227 237 235 240 247 250 248 249 258 223
7 4 7 17 24 31 43 72 148 196 226 236 221 226 200 187 190 189 183 194 207 215 220 236 234 243 244 236 242 253 246 225
13 14 11 14 21 29 34 63 123 170 209 221 233 215 189 196 195 187 189 195 209 201 210 226 240 244 238 245 256 246 228 215
9 16 16 15 20 26 27 43 99 243 219 215 219 223 188 187 190 189 197 191 193 202 217 233 240 240 242 241 245 231 229 234
14 13 16 16 20 28 33 34 37 180 197 206 227 171 181 178 185 194 198 199 203 212 216 235 240 242 241 235 230 215 233 229
20 20 22 21 20 25 31 35 36 35 126 165 181 176 168 177 182 189 197 199 198 208 220 228 244 245 243 239 235 224 218 214
21 25 28 26 22 23 34 35 38 38 35 89 135 169 158 165 177 185 191 198 202 207 215 227 238 247 234 225 226 216 210 216
26 27 30 32 33 32 35 45 50 50 51 38 46 72 132 163 168 169 173 182 194 203 212 222 231 232 219 219 214 216 212 206